PISAT (41784 NORAD) Tracking and Keplerian Element Data

This shows tracking and keplerian element data for the satellite.

Feedback or suggestion? Click here.




ElementValue
Catalog41784
NamePISAT
Epoch Orbit18758
Epoch Day92.03532434
Epoch Year2020
RAAN150.5964
Inclination98.0279
Eccentricity0.0031693
Argument of Perigee195.0039
Mean Anonmoly165.0226
Mean Motion14.63499087
Decay Rate8.1E-07
L11 41784U 16059B 20092.03532434 .00000081 00000-0 24554-4 0 9995
L22 41784 98.0279 150.5964 0031693 195.0039 165.0226 14.63499087187582

Live tracking and technical data element details for PISAT (NORAD 41784). PISAT can be tracked NOW for your location showing map with azimuth and elevation plus other details from your city location.

Track the satellite on the map from your city or location and see movement details for azimuth, elevation, latitude, longitude, range, height, and movement on the map or in text.







IsCatalogInMostPopularTable: catalog: 41784, numindb: 338
Update: records affected: 1



GetName: 41784 PISAT

Hit Count: updated at: Thu, 02 Apr 2020 03:43:31 GMT